Weather History for Mitchell, SD

Change the Weather History Date:

Tuesday, July 17, 2012

  Actual Average Record
Temperature  
Mean Temperature 83 °F 75 °F  
Max Temperature 98 °F 87 °F 113 °F (1936)
Min Temperature 67 °F 63 °F 48 °F (1906)
Degree Days  
Heating Degree Days 0 0  
Month to date heating degree days 0 0  
Since 1 June heating degree days 14 35  
Since 1 July heating degree days 0 0  
Cooling Degree Days 18 10  
Month to date cooling degree days 294 168  
Year to date cooling degree days 674 378  
Since 1 June cooling degree days 575 338  
Growing Degree Days 33 (Base 50)    
Moisture  
Dew Point 69 °F    
Average Humidity 65    
Maximum Humidity 90    
Minimum Humidity 40    
Precipitation  
Precipitation 0.00 in 0.10 in 1.92 in (1993)
Month to date precipitation 0.01 1.82  
Year to date precipitation 16.67 12.68  
Snow  
Snow 0.00 in - T in (2010)
Month to date snowfall 0.0  
Since 1 June snowfall 0.0  
Since 1 July snowfall 0.0  
Snow Depth 0.00 in    
Sea Level Pressure  
Sea Level Pressure 29.72 in    
Wind  
Wind Speed 8 mph (East)    
Max Wind Speed 22 mph    
Max Gust Speed 29 mph    
Visibility 10 miles    
Events      
T = Trace of Precipitation, MM = Missing Value Source: NWS Daily Summary

Daily Weather History Graph

Daily Weather History Graph

Search for Another Location

Airport:

Trip Planner

Search our weather history database for the weather conditions in past years. The results will help you decide how hot, cold, wet, or windy it might be!

Date:

Astronomy

Jul. 17, 2012 Rise Set
Actual Time 6:06 AM CDT 9:09 PM CDT
Civil Twilight 5:31 AM CDT 9:44 PM CDT
Nautical Twilight 4:47 AM CDT 10:28 PM CDT
Astronomical Twilight 3:54 AM CDT 11:20 PM CDT
Moon 4:44 AM CDT (7/17) 7:59 PM CDT (7/17)
Length of Visible Light 16h 12m
Length of Day
15h 03m
Waning Crescent, 2% of the Moon is Illuminated
Jul 17
Waning Crescent
Jul 18
New
Jul 26
First Quarter
Aug 1
Full
Aug 9
Last Quarter

Hourly Weather History & Observations

Time (CDT) Temp. Heat Index Dew Point Humidity Pressure Visibility Wind Dir Wind Speed Gust Speed Precip Events Conditions
12:53 AM 82.9 °F 84.6 °F 64.9 °F 54% 29.70 in 10.0 mi South 10.4 mph - N/A   Clear
1:53 AM 82.9 °F 85.0 °F 66.0 °F 56% 29.70 in 10.0 mi South 8.1 mph 18.4 mph N/A   Clear
2:53 AM 78.1 °F - 66.0 °F 66% 29.71 in 10.0 mi SE 4.6 mph - N/A   Clear
3:53 AM 72.0 °F - 66.0 °F 81% 29.70 in 10.0 mi SE 5.8 mph - N/A   Clear
4:53 AM 70.0 °F - 66.0 °F 87% 29.70 in 10.0 mi East 4.6 mph - N/A   Clear
5:53 AM 69.1 °F - 64.9 °F 87% 29.71 in 10.0 mi Calm Calm - N/A   Clear
6:53 AM 69.1 °F - 66.0 °F 90% 29.73 in 10.0 mi NE 4.6 mph - N/A   Clear
7:53 AM 73.0 °F - 66.9 °F 81% 29.73 in 10.0 mi East 5.8 mph - N/A   Clear
8:53 AM 78.1 °F - 66.9 °F 68% 29.74 in 10.0 mi ESE 8.1 mph - N/A   Clear
9:53 AM 81.0 °F 83.8 °F 68.0 °F 65% 29.75 in 10.0 mi ESE 9.2 mph - N/A   Clear
10:53 AM 86.0 °F 89.4 °F 68.0 °F 55% 29.74 in 10.0 mi ESE 10.4 mph - N/A   Clear
11:53 AM 88.0 °F 92.1 °F 69.1 °F 53% 29.75 in 10.0 mi East 6.9 mph - N/A   Clear
12:53 PM 91.0 °F 96.6 °F 70.0 °F 50% 29.75 in 10.0 mi Variable 6.9 mph - N/A   Clear
1:53 PM 93.9 °F 99.1 °F 69.1 °F 44% 29.74 in 10.0 mi East 9.2 mph 17.3 mph N/A   Clear
2:53 PM 96.1 °F 101.6 °F 69.1 °F 41% 29.73 in 10.0 mi East 10.4 mph - N/A   Clear
3:53 PM 97.0 °F 102.2 °F 68.0 °F 39% 29.71 in 10.0 mi East 12.7 mph - N/A   Clear
4:53 PM 97.0 °F 102.8 °F 69.1 °F 40% 29.70 in 10.0 mi East 11.5 mph - N/A   Clear
5:53 PM 97.0 °F 102.2 °F 68.0 °F 39% 29.68 in 10.0 mi East 13.8 mph - N/A   Clear
6:53 PM 96.1 °F 102.9 °F 70.0 °F 43% 29.68 in 10.0 mi ENE 11.5 mph - N/A   Clear
7:53 PM 93.0 °F 101.9 °F 73.0 °F 52% 29.69 in 10.0 mi East 9.2 mph - N/A   Clear
8:53 PM 89.1 °F 97.0 °F 73.0 °F 59% 29.71 in 10.0 mi East 6.9 mph - N/A   Clear
9:53 PM 88.0 °F 94.7 °F 72.0 °F 59% 29.75 in 10.0 mi ENE 6.9 mph - N/A   Mostly Cloudy
10:53 PM 86.0 °F 95.1 °F 75.0 °F 70% 29.76 in 10.0 mi East 12.7 mph - N/A   Mostly Cloudy
11:53 PM 82.0 °F 87.9 °F 73.9 °F 76% 29.75 in 10.0 mi East 10.4 mph - N/A   Clear